NOAA 16 DEB, 41262

Orbit data source: Space-Track

NOAA 16 DEB, 41262 is space debris in SSO originally from a launch on Thu, 21 Sep 2000 UTC launched from the Air Force Western Test Range (AFWTR). Debris objects in space refer to the collection of defunct objects orbiting the Earth. Examples of debris include non-operational satellites, rocket bodies, and fragments generated from explosions, collisions, or faulty payload assembly.

Loading next visibility...
Identifier
41262, 2000-055FN
Orbit
SSO
Country
Flag of USUS
Related business
Manufacturer
Unknown
Mission
Spacecraft
Bus & Motor
Unknown
Mass
Unknown
Launch date (UTC)
2000-09-21 (26 years ago)
Launch vehicle
Unknown
Launch site
Air Force Western Test Range (AFWTR)
Object type
Payload
Rocket body
Debris
Shape & HBR
Unknown shape, 0.1 m
Radar Cross Section
Small (<0.1 m²)

Expand to show TLE details & history
Last TLE update: 1 day ago

TLE from 1 day ago
0 NOAA 16 DEB
1 41262U 00055FN  26171.30293733  .00004471  00000-0  19185-2 0  9994
2 41262  98.7703 201.3746 0041242 303.4451  56.2788 14.24816247540056
Epoch: 2026-06-20T07:16Z
TLE epoch observation values (Epoch: 2026-06-20T07:16:13.785Z)
Latitude
0.00004°
Longitude
-176.20234°
Altitude
795.656 km
Speed
7.464 km/s
True Right ascension
13h 25m 29s
True Declination
0° 00' 00"
Sunlit
Object was in daylight at epoch
Visualization orbit readout
Latitude
Unknown
Longitude
Unknown
Altitude
Unknown
Speed
Unknown
Apparent Right ascension
Unknown
Apparent Declination
Unknown
Sunlit
N/A
Visualization observer readout
Local Sidereal Time
00:26:57
Azimuth
Unknown
Elevation
Unknown
Doppler factor
Unknown
Orbital elements
Apogee altitude
835.895 km
Perigee altitude
776.636 km
Semi-major axis
7,184.403 km
Eccentricity
0.00412
Inclination
98.7703°
RAAN
201.3746°
Arg. of periapsis
303.4451°
True anomaly
56.67301°
Mean anomaly
56.2788°
Eccentric anomaly
56.47579°
Mean motion
3.56416 °/min
Orbital period
101.01 mins
BSTAR
0.0019185
Loading maneuver chart data...
Computing Atmospheric mass density...
Loading historical data...
Loading historical data...
Loading historical data...
Loading historical data...
Loading historical data...
Loading historical data...
Loading historical data...

Documentation

Showing up to 5 results
|